Theta_e
337 335 333 335 337 340 340 340 339 338 335 333 331 329 328 328 331 332 334 335 337 340 341 340 339 336 333 327 325 325 332 337 342 341 339 338 340 342 342 341 340 340 340
337 336 332 335 336 339 341 339 340 339 335 332 330 328 327 328 329 330 334 338 338 338 338 336 334 333 328 327 326 325 326 336 339 339 338 337 336 339 338 335 333 335 338
335 336 333 333 335 336 337 337 337 337 337 336 331 331 331 334 332 331 337 338 337 338 337 335 333 329 327 328 324 324 325 327 334 332 333 336 335 335 334 330 331 332 332
335 335 333 333 333 335 338 339 337 336 336 337 335 335 337 336 335 333 336 337 337 337 335 333 329 326 324 324 323 323 323 325 326 328 332 335 335 334 337 334 330 332 329
334 335 334 334 335 335 339 340 339 338 335 338 338 337 336 335 334 333 336 336 336 335 333 330 324 323 322 320 318 317 317 322 324 327 329 333 335 334 334 335 333 331 330
333 337 335 334 338 337 340 340 339 338 338 336 336 335 336 337 334 333 335 333 333 333 331 328 323 321 318 313 307 304 305 311 317 324 327 332 334 334 329 334 333 333 333
331 338 339 335 339 339 338 339 338 334 336 336 336 336 336 335 331 331 331 331 331 329 329 325 322 317 310 303 300 300 301 305 308 320 325 329 330 329 328 331 332 334 333
329 337 340 339 338 340 341 339 338 334 333 334 335 335 336 335 331 329 328 329 329 328 325 324 318 310 302 300 300 300 303 306 309 314 318 322 322 322 325 327 328 330 330
329 329 336 339 341 339 339 337 337 336 336 333 334 335 337 333 331 328 325 327 328 327 324 322 313 302 300 300 300 300 304 307 311 312 313 313 316 321 321 322 323 324 325
330 329 330 335 338 340 338 339 339 337 337 336 334 335 337 334 331 328 324 326 327 325 322 319 308 301 300 300 299 299 303 304 306 308 310 310 314 318 317 318 318 319 321
328 330 330 331 333 333 338 337 338 338 337 335 334 337 337 333 330 329 327 323 325 323 321 318 311 302 301 300 299 299 301 302 302 304 304 303 305 313 315 317 316 317 318
323 327 331 331 332 333 333 338 338 337 336 334 334 336 335 333 331 330 329 322 321 320 319 317 308 301 300 299 299 300 301 301 301 301 301 298 300 309 313 312 314 318 319
319 321 325 329 332 334 333 331 330 332 332 333 333 334 333 332 330 330 328 323 318 317 317 315 310 302 300 301 300 300 300 300 300 299 300 297 299 311 313 315 317 316 316
317 318 321 324 328 332 334 334 334 333 332 334 331 332 332 331 329 329 327 322 317 315 315 312 307 302 301 301 301 300 299 299 299 299 299 298 298 302 313 315 316 317 317
316 317 318 323 325 327 332 334 334 334 334 333 332 330 331 330 329 328 326 322 317 314 314 312 307 303 300 301 300 299 299 299 299 299 299 299 298 304 313 314 315 316 316
311 314 316 319 324 326 329 331 333 333 333 332 332 332 330 330 329 327 326 322 318 315 313 313 307 304 300 300 299 299 299 298 298 298 299 299 300 305 311 312 315 316 316
307 309 313 315 320 326 327 328 331 332 332 331 331 331 330 328 328 328 326 322 319 315 313 312 309 305 300 299 298 298 298 298 298 298 298 300 299 307 309 312 312 313 316
306 307 309 313 317 324 326 326 327 329 330 330 330 330 329 329 329 329 325 321 318 314 314 313 310 307 301 299 298 297 297 297 297 297 298 301 302 304 307 309 312 315 315
302 304 307 309 313 318 325 325 325 326 328 328 328 329 329 328 329 327 325 322 316 314 315 313 310 307 300 299 298 297 297 297 297 297 297 300 302 301 304 308 312 313 312
300 302 304 307 309 312 316 320 322 323 325 326 326 326 327 326 326 325 322 319 315 314 314 311 309 304 300 299 298 297 296 296 297 296 296 297 299 299 299 302 309 310 310
298 299 300 303 305 309 313 314 316 319 320 322 323 322 323 323 323 323 320 317 314 313 312 311 307 302 299 298 297 296 296 297 297 296 295 296 295 295 295 296 302 307 308
297 297 298 299 302 305 307 310 312 314 313 315 319 319 319 319 320 320 320 316 312 311 310 309 306 301 299 298 297 294 292 294 295 295 295 295 295 294 294 294 295 298 298
297 297 297 297 299 301 303 306 307 309 308 307 308 310 314 315 315 317 317 316 310 308 308 308 305 302 298 298 297 297 292 293 292 294 295 295 294 294 293 293 293 294 295
294 296 296 296 296 297 299 300 300 298 299 300 302 303 305 307 311 312 312 313 312 307 305 306 305 301 298 298 296 297 298 297 292 292 294 294 294 293 293 292 292 292 294
294 293 294 295 295 295 296 296 296 296 297 298 298 299 300 301 304 305 306 308 308 308 305 304 302 300 298 298 296 297 297 298 296 291 290 291 293 293 292 292 291 291 293
293 292 292 292 293 293 293 293 294 294 294 294 295 295 296 297 298 301 303 303 302 305 305 304 302 300 299 298 297 296 297 297 295 294 290 289 290 292 292 291 291 291 291
Wind_Speed
16 26 27 24 24 22 21 19 16 14 11 11 10 10 10 9 9 10 10 9 8 11 12 11 9 6 5 9 10 10 12 14 15 13 11 10 12 12 10 11 8 11 11
20 25 29 25 25 23 20 19 17 15 13 11 11 10 10 9 8 8 8 11 9 7 6 7 5 3 6 8 9 9 10 12 13 12 12 10 8 8 8 7 8 9 10
20 22 29 27 25 23 21 19 16 15 14 13 12 10 9 8 8 8 10 10 8 8 6 4 3 2 4 5 6 7 8 9 10 8 4 8 6 4 5 6 7 8 7
21 21 28 28 26 23 21 18 17 16 14 12 11 11 11 9 8 9 10 9 9 6 4 2 1 2 2 3 4 5 6 7 8 8 9 6 3 4 5 4 4 5 6
19 18 25 27 26 24 23 20 18 17 16 15 14 13 12 11 11 11 12 10 8 6 5 3 3 3 2 2 2 3 4 6 7 5 5 8 8 4 4 4 3 3 3
16 17 20 26 24 23 23 23 21 20 18 16 14 13 13 12 9 9 10 9 8 7 5 4 4 4 4 3 2 4 6 8 8 6 6 7 7 7 4 5 3 1 4
17 16 16 25 25 24 24 22 20 20 20 18 16 15 15 14 13 10 10 9 8 5 6 6 6 5 4 2 5 7 9 7 7 8 6 6 6 5 4 3 4 5 5
17 18 17 19 25 25 23 23 21 20 20 19 18 17 15 19 13 11 10 10 9 8 8 8 6 5 4 5 7 9 9 8 9 9 7 6 5 3 3 2 3 3 2
16 18 20 21 23 24 24 23 24 22 21 19 19 18 19 19 15 12 10 10 10 10 10 9 7 6 7 7 8 9 8 9 8 7 5 4 4 3 3 2 3 3 3
15 20 20 20 22 25 26 25 24 23 22 21 20 20 22 19 17 14 11 11 11 11 10 10 8 8 7 7 8 9 8 8 8 7 4 4 6 3 2 1 3 2 3
16 19 22 22 23 24 30 28 26 26 25 23 22 24 24 23 20 18 14 14 13 12 12 11 10 9 8 7 8 8 7 7 6 6 4 5 4 2 2 2 3 3 2
18 21 23 23 24 22 27 33 31 30 29 26 26 26 26 24 22 20 16 15 16 15 14 12 11 11 9 9 9 8 6 5 6 4 2 4 3 3 3 2 3 4 4
20 21 25 26 25 24 25 28 30 30 29 28 26 28 27 25 23 21 19 19 19 18 18 15 15 12 12 10 8 7 7 8 6 4 2 3 3 3 2 3 4 3 3
21 22 25 26 25 27 26 26 27 28 30 31 30 29 29 28 25 23 22 21 21 22 21 19 16 13 11 9 9 9 9 7 5 4 3 3 3 4 4 3 3 4 4
16 19 20 26 28 27 29 29 28 29 29 31 33 31 31 30 29 26 25 23 22 23 23 21 18 17 15 14 12 11 9 7 6 4 3 3 4 5 6 6 5 5 4
18 13 16 19 28 28 29 30 30 27 26 28 30 32 34 34 31 30 29 27 25 24 24 23 22 20 18 17 15 13 10 9 7 6 5 4 5 7 7 6 6 6 6
22 24 8 11 18 29 28 27 29 28 25 24 26 27 28 35 34 34 32 30 27 26 25 24 23 21 20 18 16 15 13 11 9 8 6 5 5 8 10 9 7 8 10
22 21 18 9 8 20 26 25 25 26 24 25 23 24 25 28 31 33 33 30 26 25 26 28 27 24 22 21 19 17 15 13 12 11 10 9 8 10 9 7 12 11 13
25 23 21 17 10 2 16 18 18 19 22 19 22 21 23 24 28 29 31 28 26 27 29 29 28 27 26 23 20 17 16 14 12 12 13 13 12 11 12 12 13 14 15
30 27 25 24 18 14 6 2 5 6 13 17 16 17 21 23 25 27 27 26 28 29 30 30 29 27 26 23 19 17 15 14 14 14 15 14 15 14 14 15 17 16 14
35 33 30 28 25 18 15 10 6 5 3 3 9 14 16 18 21 25 26 27 29 32 33 32 30 28 25 22 19 11 11 13 15 17 17 18 18 17 16 15 18 18 18
32 33 32 30 27 25 21 17 11 9 11 8 2 7 4 9 16 20 27 27 29 31 32 33 33 30 28 28 13 6 2 8 19 19 20 21 19 19 19 18 18 18 19
33 33 33 31 28 26 22 16 15 10 11 14 12 7 7 7 7 16 22 26 26 29 33 34 35 34 31 33 31 8 2 5 3 15 24 23 22 22 21 20 20 21 21
29 29 32 34 34 30 24 21 22 23 18 18 15 10 8 7 9 13 13 21 24 25 30 34 35 36 31 31 35 33 9 4 4 1 12 25 24 25 24 24 23 24 25
24 27 28 30 31 32 32 28 25 23 19 17 17 15 14 11 7 11 14 15 19 23 25 29 33 35 38 33 32 23 34 14 7 3 3 8 25 30 28 27 25 26 29
21 23 25 26 28 28 29 29 29 28 25 24 22 21 19 16 14 9 10 14 15 19 24 26 29 33 38 41 39 38 26 14 14 7 2 5 10 21 33 31 29 29 31
Wind_Direction
203 184 180 174 169 167 167 166 167 167 166 162 151 143 136 133 134 132 131 125 122 115 107 102 93 88 82 91 94 94 94 96 104 109 89 92 98 99 98 90 92 86 79
175 185 183 180 175 173 173 172 171 170 171 170 163 157 150 149 146 138 135 135 136 129 123 107 99 97 77 89 91 94 100 106 108 102 97 80 90 102 100 87 82 80 89
182 180 187 187 183 180 181 182 181 181 178 174 173 168 161 156 152 145 142 154 155 146 135 115 84 67 82 98 96 103 104 113 118 105 119 90 90 73 74 85 84 76 76
184 185 190 191 191 188 188 189 186 186 185 181 181 167 164 166 152 150 156 165 164 164 161 149 140 133 125 108 102 105 113 120 126 110 98 123 128 105 96 65 76 85 75
183 191 195 194 195 191 189 190 190 188 187 186 181 178 180 179 166 164 170 178 182 182 181 180 184 177 186 181 157 159 152 147 143 138 156 117 132 138 134 110 65 82 68
189 191 197 196 197 197 195 194 193 191 188 191 196 194 188 187 177 183 178 186 195 192 188 206 209 221 232 221 178 164 156 159 156 147 144 140 132 98 96 107 139 125 86
187 194 198 201 199 202 204 203 203 200 192 192 201 207 195 184 189 178 183 191 192 191 189 188 209 224 231 198 142 133 144 155 151 165 152 171 162 143 110 118 115 129 133
188 198 203 202 206 203 205 207 207 207 205 202 207 211 205 200 212 184 186 190 194 192 182 186 209 218 196 147 137 131 135 139 142 169 183 211 215 194 143 156 170 169 172
198 207 209 209 208 213 209 215 214 213 215 214 211 217 209 212 219 212 201 191 193 191 185 196 210 204 169 150 139 139 143 141 161 165 169 179 176 111 102 156 188 196 214
206 216 217 214 216 214 207 212 218 220 222 222 217 218 209 218 220 229 227 194 196 195 189 199 200 187 164 150 147 144 153 149 170 177 174 191 161 109 99 138 165 190 225
215 217 219 222 219 223 214 213 214 218 221 222 223 218 212 213 218 229 245 204 203 199 195 197 190 185 168 158 158 161 167 156 182 192 187 192 188 147 126 136 141 152 194
217 222 223 227 229 226 219 218 219 222 222 223 224 218 218 218 221 232 241 217 211 205 204 195 193 188 175 171 172 178 168 168 199 211 197 194 199 169 177 177 142 129 133
239 229 228 230 230 228 221 221 223 223 220 216 221 219 220 221 228 232 236 220 212 210 210 203 203 192 187 186 187 187 181 186 192 205 221 206 197 150 144 153 148 152 159
243 245 234 231 227 226 228 226 226 224 221 215 215 220 220 223 228 234 236 221 215 213 213 213 211 199 198 201 205 200 196 199 206 210 220 216 206 172 155 172 153 141 141
246 239 239 230 227 227 223 224 226 229 228 224 220 217 221 225 228 228 231 226 221 218 218 217 212 208 207 207 211 211 210 212 225 236 257 259 214 179 171 171 164 154 154
15 297 249 233 231 225 222 223 225 230 230 230 231 230 227 229 231 227 223 223 226 225 222 222 217 213 212 212 212 212 214 218 221 231 225 220 196 189 171 169 164 166 163
24 34 9 264 238 227 224 225 225 228 231 230 233 237 238 233 232 228 227 224 226 224 222 222 219 217 216 214 213 212 212 213 214 219 223 213 196 189 178 166 186 186 180
23 25 32 15 259 227 225 227 226 227 229 233 236 236 242 240 233 227 223 227 233 228 222 218 217 215 215 214 210 210 212 212 210 207 211 215 206 205 206 202 171 170 178
33 31 35 39 44 262 229 227 229 230 232 231 234 233 236 241 229 227 222 230 230 223 220 220 221 223 213 209 211 211 212 214 215 214 210 215 217 216 210 198 192 185 185
37 41 48 50 57 54 63 156 208 216 227 229 234 235 236 240 233 230 228 228 226 220 220 222 228 221 221 211 205 208 214 218 220 220 217 219 225 229 218 210 205 205 202
42 40 40 45 48 57 53 35 14 23 32 239 234 246 250 248 239 236 230 224 224 224 225 227 224 221 217 207 183 195 207 221 224 225 223 223 221 225 225 219 213 211 210
39 42 44 43 46 52 57 54 60 61 60 47 285 264 256 247 238 237 236 232 226 225 223 223 224 218 219 203 190 148 225 245 234 229 228 227 226 224 222 218 215 215 215
45 44 47 47 46 45 52 56 53 59 45 29 18 356 284 298 283 234 237 241 234 229 227 228 228 224 213 208 211 180 130 224 173 216 224 230 230 227 226 222 216 213 215
46 50 52 50 50 47 46 54 57 49 38 28 31 25 350 317 293 272 250 243 250 245 235 235 235 230 221 214 216 224 239 173 181 233 224 226 231 235 231 225 220 215 217
52 49 51 51 49 48 50 49 50 50 43 39 30 19 15 12 340 310 295 271 254 259 254 248 240 234 229 226 217 224 233 234 232 144 208 227 225 232 234 230 224 218 220
51 50 51 54 51 48 48 46 49 49 42 36 30 23 9 5 13 354 310 295 287 262 258 259 252 246 241 235 235 232 231 223 217 188 167 212 209 226 227 228 226 222 222